QPF
0.24 0.22 0.26 0.29 0.26 0.21 0.18 0.15 0.13 0.12 0.06 0.01 0.00 0.00 0.03 0.09 0.14 0.16 0.14 0.07 0.03 0.04 0.03 0.01 0.01 0.02 0.03 0.03 0.03 0.03 0.04 0.06 0.08 0.09 0.09 0.08 0.07 0.06 0.05 0.05 0.04 0.05 0.05 0.04 0.04 0.04 0.04 0.03 0.02
0.24 0.22 0.25 0.27 0.23 0.21 0.17 0.11 0.10 0.08 0.04 0.01 0.00 0.00 0.02 0.02 0.02 0.04 0.08 0.09 0.05 0.04 0.03 0.03 0.02 0.03 0.03 0.03 0.03 0.04 0.03 0.04 0.07 0.08 0.08 0.08 0.08 0.08 0.08 0.07 0.06 0.05 0.05 0.07 0.07 0.05 0.05 0.05 0.05
0.22 0.22 0.24 0.25 0.22 0.20 0.17 0.10 0.05 0.03 0.01 0.00 0.00 0.00 0.02 0.03 0.02 0.04 0.07 0.06 0.06 0.04 0.03 0.03 0.02 0.02 0.03 0.04 0.05 0.06 0.06 0.05 0.06 0.07 0.08 0.08 0.08 0.10 0.11 0.10 0.09 0.08 0.08 0.09 0.10 0.08 0.07 0.07 0.07
0.20 0.26 0.22 0.22 0.20 0.15 0.10 0.05 0.03 0.01 0.00 0.00 0.00 0.01 0.01 0.01 0.01 0.02 0.03 0.01 0.01 0.02 0.02 0.01 0.01 0.03 0.04 0.04 0.04 0.05 0.06 0.07 0.08 0.09 0.10 0.09 0.09 0.10 0.11 0.11 0.11 0.10 0.11 0.10 0.09 0.08 0.08 0.08 0.07
0.24 0.24 0.22 0.22 0.17 0.09 0.04 0.03 0.02 0.03 0.01 0.00 0.00 0.01 0.01 0.01 0.00 0.00 0.01 0.01 0.00 0.00 0.01 0.01 0.01 0.01 0.01 0.02 0.02 0.02 0.04 0.05 0.07 0.09 0.13 0.13 0.13 0.13 0.14 0.13 0.13 0.13 0.12 0.11 0.11 0.09 0.08 0.09 0.10
0.28 0.22 0.22 0.23 0.19 0.10 0.06 0.03 0.02 0.02 0.01 0.00 0.00 0.01 0.01 0.01 0.01 0.00 0.00 0.00 0.00 0.00 0.00 0.00 0.00 0.01 0.01 0.01 0.00 0.01 0.02 0.03 0.04 0.07 0.11 0.13 0.12 0.10 0.11 0.14 0.14 0.15 0.13 0.14 0.14 0.13 0.11 0.10 0.10
0.27 0.23 0.20 0.19 0.21 0.14 0.07 0.03 0.02 0.03 0.03 0.01 0.00 0.01 0.01 0.01 0.01 0.00 0.00 0.00 0.00 0.00 0.00 0.01 0.00 0.00 0.00 0.00 0.00 0.00 0.00 0.01 0.01 0.02 0.05 0.08 0.08 0.07 0.07 0.08 0.09 0.11 0.12 0.14 0.14 0.14 0.12 0.12 0.12
0.26 0.25 0.17 0.14 0.18 0.14 0.05 0.03 0.03 0.03 0.03 0.01 0.00 0.01 0.01 0.00 0.00 0.00 0.00 0.00 0.00 0.00 0.00 0.00 0.00 0.01 0.01 0.01 0.00 0.00 0.00 0.00 0.00 0.01 0.01 0.02 0.03 0.04 0.05 0.07 0.08 0.11 0.13 0.14 0.13 0.12 0.12 0.11 0.13
0.20 0.25 0.20 0.14 0.12 0.07 0.02 0.02 0.03 0.01 0.00 0.00 0.00 0.00 0.00 0.00 0.00 0.00 0.00 0.01 0.00 0.00 0.00 0.00 0.00 0.00 0.00 0.00 0.00 0.00 0.00 0.00 0.00 0.01 0.01 0.01 0.02 0.03 0.04 0.05 0.05 0.06 0.08 0.10 0.12 0.12 0.11 0.13 0.15
0.22 0.22 0.16 0.08 0.08 0.03 0.01 0.01 0.01 0.01 0.01 0.00 0.00 0.00 0.00 0.00 0.00 0.00 0.00 0.00 0.00 0.00 0.00 0.00 0.00 0.00 0.00 0.00 0.00 0.00 0.00 0.00 0.00 0.00 0.00 0.01 0.01 0.02 0.02 0.02 0.03 0.05 0.06 0.05 0.06 0.08 0.09 0.13 0.15
0.15 0.12 0.08 0.04 0.05 0.02 0.01 0.00 0.00 0.01 0.02 0.01 0.00 0.00 0.00 0.00 0.00 0.00 0.00 0.00 0.00 0.00 0.00 0.00 0.00 0.00 0.00 0.00 0.00 0.00 0.00 0.00 0.00 0.00 0.00 0.00 0.01 0.01 0.01 0.02 0.04 0.05 0.04 0.05 0.08 0.08 0.08 0.10 0.11
0.08 0.05 0.03 0.01 0.01 0.00 0.01 0.01 0.00 0.01 0.01 0.00 0.00 0.00 0.00 0.00 0.00 0.00 0.00 0.00 0.00 0.00 0.00 0.00 0.00 0.00 0.00 0.00 0.00 0.00 0.00 0.00 0.00 0.00 0.00 0.01 0.01 0.01 0.01 0.02 0.03 0.03 0.04 0.06 0.08 0.10 0.11 0.12 0.12
0.07 0.05 0.01 0.00 0.00 0.00 0.01 0.01 0.00 0.00 0.00 0.00 0.00 0.00 0.00 0.00 0.00 0.00 0.00 0.00 0.00 0.00 0.00 0.00 0.00 0.00 0.00 0.00 0.00 0.00 0.00 0.00 0.00 0.00 0.00 0.00 0.01 0.01 0.01 0.01 0.02 0.02 0.03 0.05 0.06 0.07 0.10 0.15 0.16
0.02 0.01 0.01 0.00 0.00 0.00 0.02 0.01 0.00 0.00 0.00 0.00 0.00 0.00 0.00 0.00 0.00 0.00 0.00 0.00 0.00 0.00 0.00 0.00 0.00 0.00 0.00 0.00 0.00 0.00 0.00 0.00 0.00 0.00 0.00 0.00 0.01 0.01 0.01 0.01 0.02 0.02 0.03 0.03 0.04 0.05 0.07 0.11 0.17
0.01 0.01 0.01 0.00 0.00 0.00 0.02 0.03 0.01 0.00 0.00 0.00 0.00 0.00 0.00 0.00 0.00 0.00 0.00 0.00 0.00 0.00 0.00 0.00 0.00 0.00 0.00 0.00 0.00 0.00 0.00 0.00 0.00 0.00 0.00 0.00 0.01 0.01 0.02 0.02 0.02 0.03 0.02 0.02 0.03 0.04 0.06 0.08 0.11
0.02 0.03 0.03 0.01 0.00 0.00 0.02 0.04 0.01 0.01 0.01 0.01 0.00 0.00 0.00 0.00 0.00 0.00 0.00 0.00 0.00 0.00 0.00 0.00 0.00 0.00 0.00 0.00 0.00 0.00 0.00 0.00 0.00 0.00 0.00 0.00 0.01 0.01 0.02 0.03 0.04 0.03 0.02 0.03 0.05 0.05 0.06 0.07 0.09
0.04 0.04 0.03 0.02 0.00 0.00 0.01 0.02 0.01 0.01 0.01 0.01 0.00 0.00 0.00 0.00 0.00 0.00 0.00 0.00 0.00 0.00 0.00 0.00 0.00 0.00 0.00 0.00 0.00 0.00 0.00 0.00 0.00 0.00 0.00 0.00 0.00 0.00 0.02 0.04 0.04 0.05 0.05 0.05 0.04 0.06 0.07 0.06 0.08
0.03 0.02 0.02 0.02 0.01 0.00 0.00 0.00 0.00 0.00 0.00 0.00 0.00 0.00 0.00 0.00 0.00 0.00 0.00 0.00 0.00 0.00 0.00 0.00 0.00 0.00 0.00 0.00 0.00 0.00 0.00 0.00 0.00 0.00 0.00 0.00 0.01 0.01 0.02 0.03 0.03 0.05 0.07 0.08 0.08 0.09 0.09 0.08 0.07
0.02 0.02 0.03 0.01 0.01 0.01 0.00 0.00 0.00 0.00 0.00 0.00 0.00 0.00 0.00 0.00 0.00 0.00 0.00 0.00 0.00 0.00 0.00 0.00 0.00 0.00 0.00 0.00 0.00 0.00 0.00 0.00 0.00 0.00 0.00 0.01 0.01 0.01 0.02 0.02 0.03 0.04 0.05 0.07 0.07 0.09 0.08 0.09 0.08
0.03 0.02 0.02 0.01 0.01 0.00 0.00 0.00 0.00 0.00 0.00 0.00 0.00 0.00 0.00 0.00 0.00 0.00 0.00 0.00 0.00 0.00 0.00 0.00 0.00 0.00 0.00 0.00 0.00 0.00 0.00 0.00 0.00 0.00 0.00 0.00 0.00 0.01 0.02 0.03 0.04 0.05 0.05 0.05 0.05 0.07 0.08 0.07 0.08
0.01 0.02 0.02 0.01 0.01 0.00 0.00 0.00 0.00 0.00 0.00 0.00 0.00 0.00 0.00 0.00 0.00 0.00 0.00 0.00 0.00 0.00 0.00 0.00 0.00 0.00 0.00 0.00 0.00 0.00 0.00 0.00 0.00 0.00 0.00 0.00 0.01 0.01 0.02 0.03 0.04 0.04 0.04 0.04 0.05 0.06 0.07 0.08 0.09
0.02 0.02 0.01 0.01 0.01 0.01 0.01 0.00 0.00 0.00 0.00 0.00 0.00 0.00 0.00 0.00 0.00 0.00 0.00 0.00 0.00 0.00 0.00 0.00 0.00 0.00 0.00 0.00 0.00 0.00 0.00 0.00 0.00 0.00 0.00 0.00 0.01 0.02 0.02 0.02 0.02 0.02 0.03 0.03 0.03 0.04 0.05 0.07 0.08
0.02 0.03 0.00 0.00 0.00 0.00 0.00 0.00 0.00 0.00 0.00 0.00 0.00 0.00 0.00 0.00 0.00 0.00 0.00 0.00 0.00 0.00 0.00 0.00 0.00 0.00 0.00 0.00 0.00 0.00 0.00 0.00 0.00 0.00 0.00 0.00 0.01 0.02 0.01 0.02 0.02 0.03 0.03 0.03 0.02 0.03 0.03 0.05 0.08
0.01 0.00 0.00 0.00 0.00 0.00 0.00 0.00 0.00 0.00 0.00 0.00 0.00 0.00 0.00 0.00 0.00 0.00 0.00 0.00 0.00 0.00 0.00 0.00 0.00 0.00 0.00 0.00 0.00 0.00 0.00 0.00 0.00 0.00 0.00 0.00 0.01 0.01 0.00 0.01 0.03 0.03 0.03 0.03 0.02 0.02 0.03 0.04 0.06
0.00 0.00 0.01 0.01 0.01 0.00 0.00 0.00 0.00 0.00 0.00 0.00 0.00 0.00 0.00 0.00 0.00 0.00 0.00 0.00 0.00 0.00 0.00 0.00 0.00 0.00 0.00 0.00 0.00 0.00 0.00 0.00 0.00 0.00 0.00 0.00 0.01 0.00 0.00 0.00 0.02 0.02 0.02 0.01 0.01 0.01 0.02 0.02 0.04
0.00 0.00 0.02 0.04 0.02 0.00 0.00 0.00 0.00 0.00 0.00 0.00 0.00 0.00 0.00 0.00 0.00 0.00 0.00 0.00 0.00 0.00 0.00 0.00 0.00 0.00 0.00 0.00 0.00 0.00 0.00 0.00 0.00 0.00 0.00 0.00 0.01 0.00 0.00 0.00 0.01 0.01 0.01 0.00 0.01 0.01 0.01 0.01 0.01
0.00 0.00 0.00 0.00 0.00 0.00 0.00 0.00 0.00 0.00 0.00 0.00 0.00 0.00 0.00 0.00 0.00 0.00 0.00 0.00 0.00 0.00 0.00 0.00 0.00 0.00 0.00 0.00 0.00 0.00 0.00 0.00 0.00 0.00 0.00 0.00 0.00 0.00 0.00 0.00 0.01 0.01 0.01 0.01 0.01 0.01 0.01 0.01 0.01
0.00 0.00 0.00 0.00 0.00 0.01 0.00 0.00 0.00 0.00 0.00 0.00 0.00 0.00 0.00 0.00 0.00 0.00 0.00 0.00 0.00 0.00 0.00 0.00 0.00 0.00 0.00 0.00 0.00 0.00 0.00 0.00 0.00 0.00 0.00 0.00 0.00 0.00 0.00 0.01 0.01 0.02 0.02 0.02 0.03 0.03 0.02 0.01 0.01
0.00 0.00 0.00 0.00 0.00 0.00 0.01 0.00 0.00 0.00 0.00 0.00 0.00 0.00 0.00 0.00 0.00 0.00 0.00 0.00 0.00 0.00 0.00 0.00 0.00 0.00 0.00 0.00 0.00 0.00 0.00 0.00 0.00 0.00 0.00 0.00 0.00 0.00 0.01 0.01 0.01 0.02 0.02 0.03 0.03 0.03 0.02 0.02 0.02
0.00 0.00 0.00 0.00 0.00 0.00 0.00 0.00 0.00 0.00 0.00 0.00 0.00 0.00 0.00 0.00 0.00 0.00 0.00 0.00 0.00 0.00 0.00 0.00 0.00 0.00 0.00 0.00 0.00 0.00 0.00 0.00 0.00 0.00 0.00 0.00 0.00 0.00 0.01 0.01 0.01 0.01 0.01 0.01 0.02 0.02 0.02 0.03 0.03
MSLP
1010.23 1011.32 1012.52 1013.66 1014.55 1015.05 1015.05 1014.56 1013.67 1012.55 1011.44 1010.52 1009.95 1009.78 1009.98 1010.42 1010.94 1011.37 1011.58 1011.54 1011.27 1010.88 1010.49 1010.22 1010.16 1010.32 1010.65 1011.07 1011.46 1011.76 1011.93 1011.96 1011.92 1011.86 1011.85 1011.93 1012.08 1012.29 1012.50 1012.66 1012.73 1012.72 1012.65 1012.56 1012.49 1012.48 1012.52 1012.60 1012.69
1010.45 1011.64 1012.86 1013.93 1014.68 1014.99 1014.79 1014.12 1013.11 1011.94 1010.86 1010.03 1009.59 1009.57 1009.90 1010.44 1011.01 1011.45 1011.65 1011.57 1011.28 1010.88 1010.50 1010.26 1010.24 1010.44 1010.80 1011.23 1011.64 1011.94 1012.10 1012.13 1012.08 1012.02 1012.01 1012.07 1012.21 1012.38 1012.55 1012.66 1012.70 1012.66 1012.57 1012.47 1012.40 1012.39 1012.43 1012.51 1012.58
1010.73 1011.96 1013.12 1014.06 1014.62 1014.70 1014.31 1013.50 1012.42 1011.27 1010.27 1009.58 1009.30 1009.42 1009.85 1010.45 1011.04 1011.46 1011.63 1011.53 1011.23 1010.85 1010.51 1010.32 1010.35 1010.59 1010.97 1011.41 1011.81 1012.10 1012.24 1012.27 1012.22 1012.15 1012.13 1012.18 1012.29 1012.43 1012.55 1012.61 1012.60 1012.53 1012.42 1012.32 1012.25 1012.25 1012.29 1012.37 1012.43
1011.08 1012.25 1013.28 1014.02 1014.35 1014.22 1013.65 1012.75 1011.67 1010.61 1009.75 1009.24 1009.12 1009.37 1009.88 1010.50 1011.06 1011.44 1011.56 1011.44 1011.15 1010.80 1010.52 1010.40 1010.49 1010.77 1011.16 1011.59 1011.96 1012.21 1012.33 1012.34 1012.28 1012.22 1012.19 1012.23 1012.31 1012.41 1012.49 1012.50 1012.45 1012.35 1012.23 1012.12 1012.07 1012.08 1012.13 1012.21 1012.29
1011.46 1012.51 1013.34 1013.83 1013.91 1013.57 1012.88 1011.94 1010.93 1010.02 1009.36 1009.04 1009.09 1009.45 1010.01 1010.61 1011.11 1011.41 1011.48 1011.33 1011.06 1010.77 1010.56 1010.51 1010.66 1010.96 1011.35 1011.74 1012.06 1012.26 1012.34 1012.32 1012.25 1012.19 1012.17 1012.20 1012.27 1012.34 1012.38 1012.35 1012.27 1012.15 1012.02 1011.92 1011.88 1011.91 1011.99 1012.09 1012.17
1011.86 1012.71 1013.28 1013.49 1013.32 1012.81 1012.04 1011.14 1010.26 1009.55 1009.12 1009.01 1009.22 1009.67 1010.23 1010.78 1011.20 1011.41 1011.41 1011.24 1010.99 1010.76 1010.62 1010.65 1010.84 1011.14 1011.50 1011.83 1012.08 1012.22 1012.24 1012.20 1012.13 1012.07 1012.07 1012.11 1012.17 1012.22 1012.23 1012.18 1012.08 1011.94 1011.82 1011.74 1011.73 1011.78 1011.89 1012.01 1012.12
1012.21 1012.81 1013.09 1013.03 1012.64 1011.99 1011.20 1010.39 1009.69 1009.21 1009.03 1009.13 1009.48 1009.98 1010.52 1010.99 1011.30 1011.42 1011.36 1011.17 1010.95 1010.78 1010.72 1010.80 1011.02 1011.31 1011.61 1011.87 1012.03 1012.10 1012.07 1012.00 1011.93 1011.90 1011.91 1011.97 1012.03 1012.08 1012.07 1012.00 1011.89 1011.76 1011.65 1011.59 1011.61 1011.69 1011.83 1011.97 1012.10
1012.45 1012.79 1012.79 1012.47 1011.90 1011.18 1010.42 1009.74 1009.24 1009.01 1009.05 1009.33 1009.79 1010.32 1010.82 1011.20 1011.41 1011.43 1011.32 1011.13 1010.95 1010.84 1010.84 1010.97 1011.19 1011.45 1011.68 1011.85 1011.93 1011.92 1011.85 1011.77 1011.71 1011.70 1011.74 1011.82 1011.90 1011.94 1011.93 1011.85 1011.73 1011.60 1011.51 1011.48 1011.52 1011.64 1011.80 1011.97 1012.11
1012.51 1012.61 1012.37 1011.86 1011.17 1010.42 1009.73 1009.21 1008.92 1008.90 1009.14 1009.56 1010.08 1010.61 1011.04 1011.33 1011.45 1011.41 1011.27 1011.10 1010.97 1010.92 1010.98 1011.14 1011.35 1011.56 1011.73 1011.81 1011.81 1011.74 1011.63 1011.55 1011.51 1011.53 1011.61 1011.71 1011.80 1011.84 1011.82 1011.73 1011.61 1011.49 1011.41 1011.40 1011.47 1011.60 1011.78 1011.96 1012.10
1012.38 1012.28 1011.86 1011.23 1010.49 1009.77 1009.19 1008.82 1008.71 1008.87 1009.24 1009.75 1010.29 1010.77 1011.14 1011.35 1011.39 1011.32 1011.19 1011.06 1010.99 1011.01 1011.12 1011.30 1011.49 1011.66 1011.75 1011.76 1011.69 1011.58 1011.46 1011.38 1011.37 1011.43 1011.54 1011.66 1011.76 1011.80 1011.76 1011.67 1011.54 1011.42 1011.35 1011.35 1011.43 1011.57 1011.75 1011.92 1012.06
1012.05 1011.82 1011.31 1010.63 1009.91 1009.27 1008.80 1008.57 1008.60 1008.88 1009.32 1009.84 1010.35 1010.78 1011.07 1011.21 1011.22 1011.14 1011.05 1010.98 1010.99 1011.09 1011.25 1011.44 1011.62 1011.74 1011.78 1011.73 1011.62 1011.48 1011.36 1011.30 1011.33 1011.42 1011.55 1011.69 1011.79 1011.82 1011.77 1011.66 1011.52 1011.40 1011.33 1011.33 1011.41 1011.55 1011.71 1011.86 1011.97
1011.56 1011.28 1010.76 1010.12 1009.48 1008.94 1008.58 1008.47 1008.58 1008.90 1009.33 1009.81 1010.25 1010.60 1010.82 1010.91 1010.92 1010.87 1010.84 1010.87 1010.96 1011.13 1011.34 1011.55 1011.72 1011.81 1011.81 1011.73 1011.60 1011.46 1011.36 1011.33 1011.38 1011.49 1011.64 1011.78 1011.88 1011.90 1011.84 1011.72 1011.57 1011.45 1011.37 1011.36 1011.43 1011.54 1011.66 1011.78 1011.84
1011.01 1010.75 1010.29 1009.75 1009.21 1008.79 1008.54 1008.48 1008.62 1008.91 1009.28 1009.67 1010.01 1010.26 1010.42 1010.49 1010.51 1010.53 1010.58 1010.70 1010.89 1011.13 1011.39 1011.62 1011.79 1011.87 1011.85 1011.76 1011.64 1011.52 1011.44 1011.44 1011.51 1011.64 1011.79 1011.93 1012.01 1012.02 1011.95 1011.83 1011.69 1011.56 1011.48 1011.45 1011.48 1011.55 1011.63 1011.69 1011.70
1010.51 1010.32 1009.97 1009.54 1009.13 1008.82 1008.63 1008.60 1008.70 1008.91 1009.17 1009.43 1009.65 1009.81 1009.91 1009.98 1010.04 1010.13 1010.28 1010.49 1010.76 1011.06 1011.37 1011.62 1011.80 1011.89 1011.89 1011.82 1011.73 1011.64 1011.60 1011.62 1011.70 1011.83 1011.97 1012.09 1012.16 1012.17 1012.10 1011.99 1011.86 1011.74 1011.65 1011.61 1011.61 1011.63 1011.64 1011.64 1011.59
1010.15 1010.05 1009.82 1009.52 1009.22 1008.99 1008.83 1008.77 1008.79 1008.88 1008.99 1009.11 1009.21 1009.29 1009.37 1009.45 1009.56 1009.73 1009.96 1010.25 1010.59 1010.94 1011.28 1011.56 1011.76 1011.88 1011.91 1011.90 1011.85 1011.81 1011.80 1011.84 1011.93 1012.04 1012.16 1012.26 1012.31 1012.32 1012.27 1012.18 1012.08 1011.98 1011.90 1011.84 1011.80 1011.76 1011.72 1011.64 1011.53
1010.00 1009.98 1009.85 1009.66 1009.45 1009.25 1009.08 1008.95 1008.86 1008.80 1008.77 1008.74 1008.74 1008.76 1008.82 1008.93 1009.10 1009.34 1009.64 1009.99 1010.38 1010.76 1011.11 1011.42 1011.66 1011.82 1011.92 1011.97 1011.99 1012.01 1012.04 1012.09 1012.16 1012.25 1012.34 1012.41 1012.45 1012.46 1012.44 1012.39 1012.33 1012.27 1012.20 1012.14 1012.06 1011.98 1011.86 1011.72 1011.55
1010.08 1010.12 1010.06 1009.93 1009.76 1009.56 1009.34 1009.12 1008.89 1008.68 1008.50 1008.35 1008.26 1008.24 1008.31 1008.45 1008.68 1008.98 1009.33 1009.72 1010.13 1010.52 1010.89 1011.22 1011.49 1011.72 1011.90 1012.04 1012.14 1012.23 1012.29 1012.35 1012.40 1012.45 1012.49 1012.53 1012.56 1012.58 1012.60 1012.60 1012.60 1012.58 1012.54 1012.47 1012.38 1012.24 1012.08 1011.88 1011.67
1010.33 1010.39 1010.37 1010.27 1010.10 1009.87 1009.58 1009.24 1008.87 1008.51 1008.19 1007.94 1007.79 1007.75 1007.83 1008.02 1008.30 1008.65 1009.04 1009.44 1009.85 1010.24 1010.61 1010.96 1011.29 1011.59 1011.87 1012.10 1012.30 1012.45 1012.56 1012.62 1012.64 1012.65 1012.64 1012.64 1012.66 1012.69 1012.74 1012.80 1012.85 1012.88 1012.88 1012.82 1012.71 1012.55 1012.35 1012.11 1011.87
1010.66 1010.73 1010.72 1010.63 1010.44 1010.15 1009.77 1009.31 1008.81 1008.31 1007.87 1007.54 1007.34 1007.29 1007.39 1007.62 1007.95 1008.33 1008.74 1009.15 1009.54 1009.92 1010.30 1010.68 1011.06 1011.44 1011.81 1012.16 1012.45 1012.67 1012.82 1012.88 1012.88 1012.83 1012.78 1012.74 1012.73 1012.77 1012.85 1012.96 1013.07 1013.15 1013.18 1013.15 1013.04 1012.86 1012.64 1012.39 1012.15
1010.96 1011.04 1011.04 1010.96 1010.75 1010.41 1009.94 1009.36 1008.73 1008.11 1007.56 1007.15 1006.91 1006.85 1006.98 1007.24 1007.61 1008.02 1008.43 1008.84 1009.22 1009.59 1009.97 1010.37 1010.81 1011.27 1011.74 1012.19 1012.57 1012.87 1013.05 1013.12 1013.09 1013.00 1012.90 1012.81 1012.78 1012.82 1012.93 1013.07 1013.23 1013.36 1013.42 1013.41 1013.31 1013.14 1012.93 1012.69 1012.47
1011.15 1011.25 1011.30 1011.23 1011.03 1010.65 1010.11 1009.43 1008.68 1007.94 1007.29 1006.80 1006.51 1006.44 1006.57 1006.86 1007.25 1007.68 1008.11 1008.51 1008.89 1009.26 1009.64 1010.07 1010.56 1011.09 1011.65 1012.18 1012.65 1013.00 1013.22 1013.29 1013.25 1013.13 1012.98 1012.86 1012.81 1012.84 1012.96 1013.13 1013.31 1013.48 1013.57 1013.59 1013.52 1013.37 1013.18 1012.98 1012.79
1011.16 1011.34 1011.46 1011.46 1011.29 1010.92 1010.33 1009.58 1008.73 1007.87 1007.11 1006.53 1006.17 1006.07 1006.19 1006.48 1006.89 1007.34 1007.78 1008.19 1008.57 1008.94 1009.34 1009.79 1010.31 1010.90 1011.51 1012.11 1012.63 1013.03 1013.28 1013.37 1013.32 1013.18 1013.01 1012.87 1012.79 1012.82 1012.93 1013.11 1013.32 1013.50 1013.63 1013.67 1013.62 1013.51 1013.36 1013.21 1013.09
1011.00 1011.31 1011.56 1011.67 1011.58 1011.23 1010.64 1009.83 1008.89 1007.92 1007.05 1006.36 1005.92 1005.75 1005.83 1006.12 1006.53 1006.99 1007.46 1007.89 1008.28 1008.67 1009.07 1009.53 1010.07 1010.68 1011.32 1011.95 1012.50 1012.93 1013.21 1013.31 1013.27 1013.13 1012.95 1012.80 1012.72 1012.74 1012.85 1013.04 1013.25 1013.45 1013.59 1013.65 1013.64 1013.57 1013.47 1013.38 1013.33
1010.74 1011.21 1011.62 1011.88 1011.89 1011.61 1011.03 1010.19 1009.17 1008.10 1007.11 1006.30 1005.75 1005.50 1005.53 1005.79 1006.20 1006.68 1007.16 1007.62 1008.04 1008.44 1008.85 1009.31 1009.84 1010.44 1011.07 1011.69 1012.24 1012.68 1012.96 1013.09 1013.07 1012.95 1012.79 1012.65 1012.58 1012.61 1012.72 1012.91 1013.12 1013.32 1013.48 1013.56 1013.58 1013.55 1013.50 1013.47 1013.48
1010.47 1011.11 1011.69 1012.10 1012.23 1012.03 1011.48 1010.62 1009.54 1008.38 1007.27 1006.34 1005.68 1005.34 1005.30 1005.52 1005.92 1006.41 1006.92 1007.41 1007.86 1008.28 1008.69 1009.13 1009.63 1010.18 1010.76 1011.34 1011.86 1012.28 1012.57 1012.71 1012.72 1012.64 1012.53 1012.43 1012.39 1012.43 1012.55 1012.74 1012.95 1013.15 1013.31 1013.41 1013.46 1013.46 1013.45 1013.47 1013.53
1010.26 1011.04 1011.76 1012.30 1012.54 1012.42 1011.90 1011.03 1009.91 1008.68 1007.47 1006.44 1005.68 1005.25 1005.14 1005.31 1005.69 1006.19 1006.73 1007.26 1007.73 1008.16 1008.57 1008.98 1009.42 1009.90 1010.41 1010.92 1011.38 1011.77 1012.05 1012.20 1012.25 1012.23 1012.17 1012.13 1012.14 1012.21 1012.36 1012.55 1012.77 1012.97 1013.13 1013.24 1013.29 1013.32 1013.34 1013.39 1013.48
1010.16 1011.02 1011.83 1012.45 1012.75 1012.68 1012.19 1011.33 1010.19 1008.91 1007.65 1006.54 1005.70 1005.20 1005.02 1005.16 1005.52 1006.03 1006.58 1007.13 1007.63 1008.07 1008.47 1008.84 1009.22 1009.62 1010.04 1010.46 1010.86 1011.20 1011.46 1011.63 1011.73 1011.76 1011.78 1011.80 1011.87 1011.99 1012.16 1012.37 1012.58 1012.78 1012.94 1013.05 1013.12 1013.15 1013.18 1013.24 1013.34
1010.17 1011.04 1011.84 1012.46 1012.77 1012.71 1012.24 1011.39 1010.26 1008.98 1007.70 1006.57 1005.69 1005.14 1004.92 1005.02 1005.37 1005.86 1006.43 1006.99 1007.51 1007.96 1008.34 1008.68 1009.01 1009.33 1009.67 1010.01 1010.33 1010.63 1010.87 1011.06 1011.19 1011.29 1011.37 1011.47 1011.59 1011.76 1011.96 1012.18 1012.40 1012.60 1012.76 1012.86 1012.93 1012.96 1012.99 1013.05 1013.13
1010.25 1011.01 1011.72 1012.25 1012.51 1012.42 1011.95 1011.13 1010.04 1008.81 1007.57 1006.46 1005.59 1005.02 1004.79 1004.86 1005.17 1005.66 1006.22 1006.78 1007.30 1007.75 1008.13 1008.45 1008.74 1009.02 1009.29 1009.57 1009.85 1010.11 1010.34 1010.54 1010.71 1010.86 1011.00 1011.15 1011.33 1011.53 1011.76 1011.99 1012.22 1012.41 1012.57 1012.67 1012.73 1012.76 1012.78 1012.82 1012.89
1010.29 1010.87 1011.40 1011.79 1011.94 1011.78 1011.31 1010.53 1009.51 1008.36 1007.21 1006.18 1005.36 1004.81 1004.57 1004.62 1004.90 1005.35 1005.88 1006.43 1006.94 1007.40 1007.78 1008.11 1008.39 1008.65 1008.91 1009.16 1009.42 1009.66 1009.90 1010.11 1010.31 1010.49 1010.68 1010.87 1011.08 1011.30 1011.54 1011.78 1012.01 1012.20 1012.35 1012.45 1012.51 1012.54 1012.55 1012.57 1012.62
Thickness
5794 5792 5789 5777 5758 5748 5749 5763 5776 5779 5785 5800 5807 5804 5790 5781 5771 5758 5780 5794 5794 5790 5785 5781 5778 5775 5773 5771 5769 5767 5766 5764 5762 5761 5760 5759 5757 5756 5755 5755 5755 5755 5754 5755 5755 5756 5757 5757 5757
5794 5791 5781 5766 5749 5741 5749 5767 5773 5780 5791 5804 5806 5802 5791 5782 5785 5780 5783 5790 5791 5788 5782 5777 5774 5772 5770 5768 5766 5764 5762 5760 5759 5757 5756 5755 5753 5752 5752 5752 5751 5751 5751 5751 5752 5753 5754 5754 5755
5793 5789 5771 5759 5752 5750 5755 5773 5779 5789 5799 5801 5799 5798 5787 5779 5783 5781 5785 5789 5788 5783 5778 5773 5770 5768 5765 5763 5761 5760 5758 5756 5755 5753 5752 5751 5750 5749 5748 5748 5747 5747 5747 5748 5749 5750 5750 5751 5752
5788 5777 5769 5757 5755 5768 5773 5780 5787 5789 5795 5801 5798 5787 5783 5787 5785 5784 5788 5788 5783 5779 5773 5768 5766 5763 5761 5759 5757 5755 5753 5752 5750 5749 5748 5747 5746 5745 5745 5744 5744 5743 5744 5744 5745 5746 5747 5748 5749
5785 5769 5757 5754 5760 5775 5786 5790 5793 5788 5789 5795 5793 5776 5771 5783 5788 5787 5785 5784 5779 5775 5771 5766 5763 5760 5758 5756 5753 5751 5749 5747 5746 5744 5743 5742 5742 5741 5741 5740 5740 5740 5740 5740 5741 5743 5744 5744 5746
5770 5765 5751 5749 5758 5775 5786 5793 5793 5787 5788 5792 5790 5777 5769 5782 5782 5782 5782 5780 5777 5774 5770 5765 5761 5758 5755 5752 5749 5747 5745 5743 5742 5740 5739 5738 5737 5737 5737 5736 5736 5735 5735 5736 5737 5739 5740 5741 5743
5763 5758 5753 5756 5756 5766 5780 5791 5787 5785 5783 5788 5793 5776 5769 5776 5780 5781 5779 5777 5774 5772 5769 5765 5761 5757 5754 5750 5747 5745 5742 5740 5738 5737 5735 5734 5734 5733 5733 5732 5732 5731 5731 5732 5733 5734 5736 5738 5740
5772 5759 5755 5759 5756 5762 5782 5789 5790 5787 5784 5795 5795 5776 5766 5774 5780 5779 5776 5773 5771 5770 5767 5764 5761 5757 5753 5749 5746 5744 5741 5739 5736 5734 5733 5731 5730 5730 5729 5728 5727 5727 5727 5728 5729 5730 5732 5734 5736
5774 5752 5746 5755 5759 5766 5783 5783 5788 5796 5791 5791 5792 5786 5782 5781 5779 5773 5769 5768 5767 5766 5766 5763 5760 5757 5753 5751 5747 5744 5741 5738 5735 5733 5730 5729 5728 5728 5726 5725 5723 5723 5723 5723 5724 5726 5728 5730 5733
5763 5745 5751 5767 5771 5772 5780 5782 5785 5785 5779 5780 5780 5782 5783 5779 5775 5769 5765 5763 5762 5762 5763 5763 5760 5757 5753 5751 5747 5744 5741 5737 5735 5732 5729 5727 5726 5725 5723 5721 5719 5718 5718 5719 5720 5722 5724 5726 5729
5763 5755 5764 5772 5778 5780 5780 5782 5789 5780 5770 5777 5775 5775 5777 5775 5772 5770 5767 5766 5763 5762 5761 5761 5759 5757 5754 5750 5746 5742 5739 5736 5734 5730 5727 5725 5723 5720 5719 5717 5715 5714 5714 5714 5716 5718 5720 5723 5725
5761 5767 5772 5776 5782 5781 5780 5782 5782 5779 5779 5790 5788 5782 5777 5773 5771 5770 5768 5766 5764 5761 5759 5759 5758 5756 5753 5748 5744 5742 5738 5734 5731 5728 5724 5721 5718 5715 5714 5712 5711 5710 5710 5711 5712 5713 5716 5719 5722
5759 5765 5774 5780 5782 5782 5781 5779 5779 5780 5788 5792 5788 5782 5776 5774 5773 5773 5772 5769 5765 5760 5759 5757 5756 5753 5750 5746 5742 5741 5737 5733 5730 5725 5721 5718 5714 5711 5709 5708 5707 5706 5706 5706 5707 5709 5711 5714 5718
5765 5770 5773 5778 5779 5781 5775 5776 5777 5779 5789 5786 5781 5777 5776 5774 5773 5772 5769 5767 5765 5761 5759 5757 5754 5751 5748 5745 5741 5738 5735 5732 5728 5722 5719 5715 5711 5707 5705 5703 5702 5701 5701 5702 5702 5704 5707 5709 5713
5770 5764 5766 5772 5776 5779 5775 5764 5771 5782 5785 5779 5777 5776 5775 5774 5773 5771 5770 5768 5766 5763 5761 5756 5753 5750 5746 5742 5738 5736 5733 5730 5725 5720 5716 5712 5708 5704 5701 5698 5697 5696 5697 5697 5698 5700 5702 5704 5708
5763 5755 5747 5764 5773 5776 5764 5748 5772 5784 5779 5774 5775 5775 5772 5773 5774 5774 5773 5770 5768 5764 5760 5756 5754 5748 5744 5740 5736 5734 5731 5727 5722 5718 5713 5708 5705 5701 5698 5694 5692 5692 5693 5693 5693 5694 5695 5698 5702
5749 5741 5743 5755 5771 5773 5763 5754 5772 5784 5779 5773 5774 5774 5772 5772 5773 5775 5774 5772 5769 5764 5760 5755 5751 5747 5743 5739 5736 5733 5729 5724 5720 5716 5710 5705 5701 5698 5695 5691 5690 5689 5688 5688 5689 5690 5691 5692 5696
5733 5741 5744 5749 5762 5765 5759 5760 5772 5781 5779 5776 5776 5776 5775 5774 5773 5777 5775 5772 5768 5764 5761 5755 5750 5746 5743 5739 5735 5731 5727 5723 5719 5714 5708 5702 5698 5695 5692 5690 5687 5686 5684 5683 5684 5685 5688 5690 5693
5747 5743 5738 5749 5765 5761 5758 5762 5772 5780 5779 5777 5777 5777 5777 5776 5780 5779 5775 5771 5766 5762 5759 5754 5749 5746 5741 5735 5730 5726 5721 5719 5716 5712 5706 5702 5697 5693 5691 5687 5685 5683 5681 5681 5681 5683 5683 5686 5691
5746 5740 5740 5752 5765 5761 5759 5765 5778 5784 5782 5782 5781 5781 5780 5780 5779 5776 5773 5769 5765 5761 5757 5754 5749 5745 5740 5734 5731 5726 5722 5719 5715 5711 5706 5701 5697 5692 5689 5685 5683 5681 5680 5679 5680 5680 5680 5682 5687
5743 5740 5740 5743 5757 5764 5758 5757 5773 5786 5790 5788 5787 5786 5786 5782 5778 5774 5771 5767 5763 5760 5757 5754 5749 5745 5740 5735 5731 5726 5721 5717 5713 5708 5704 5701 5697 5692 5688 5685 5683 5681 5679 5677 5678 5678 5677 5677 5683
5736 5752 5753 5749 5742 5740 5752 5736 5764 5779 5779 5781 5782 5782 5782 5783 5781 5776 5771 5767 5763 5761 5758 5755 5749 5745 5740 5735 5728 5722 5717 5712 5710 5707 5704 5702 5698 5693 5689 5685 5683 5681 5679 5678 5677 5677 5677 5677 5677
5747 5758 5757 5753 5746 5743 5753 5744 5759 5776 5769 5773 5779 5780 5781 5782 5780 5776 5772 5768 5766 5762 5757 5754 5749 5744 5739 5734 5728 5722 5718 5714 5712 5708 5705 5702 5698 5695 5690 5686 5684 5681 5679 5678 5677 5676 5676 5676 5676
5761 5758 5757 5755 5746 5729 5750 5746 5748 5766 5769 5773 5778 5781 5781 5781 5780 5776 5773 5769 5764 5761 5756 5752 5746 5741 5738 5733 5729 5724 5719 5714 5711 5707 5703 5700 5698 5695 5692 5688 5684 5682 5679 5677 5676 5676 5676 5676 5676
5755 5740 5725 5722 5721 5726 5759 5751 5753 5773 5780 5778 5777 5779 5781 5780 5777 5773 5768 5764 5760 5756 5753 5749 5744 5739 5737 5733 5729 5726 5721 5717 5712 5708 5704 5700 5698 5694 5691 5688 5685 5682 5680 5678 5677 5676 5676 5676 5675
5752 5746 5720 5702 5707 5728 5753 5750 5762 5781 5783 5782 5780 5779 5779 5778 5776 5772 5768 5763 5759 5755 5752 5748 5744 5740 5737 5733 5731 5728 5724 5719 5715 5711 5707 5703 5699 5696 5693 5689 5687 5684 5681 5679 5677 5676 5676 5676 5675
5750 5749 5756 5737 5732 5728 5746 5761 5770 5778 5775 5775 5775 5774 5773 5774 5773 5771 5767 5764 5759 5755 5752 5749 5745 5741 5738 5735 5732 5729 5726 5721 5716 5713 5709 5705 5702 5698 5694 5691 5688 5686 5683 5680 5677 5675 5675 5674 5674
5760 5757 5747 5733 5715 5710 5728 5743 5746 5756 5762 5767 5769 5769 5771 5773 5772 5770 5767 5764 5761 5757 5754 5751 5747 5743 5740 5737 5734 5730 5726 5722 5718 5713 5710 5706 5703 5699 5695 5692 5690 5687 5684 5682 5678 5676 5675 5674 5673
5751 5748 5745 5738 5734 5714 5706 5726 5765 5763 5765 5765 5768 5771 5772 5771 5769 5768 5766 5765 5762 5759 5755 5751 5748 5744 5741 5738 5735 5731 5726 5723 5719 5714 5710 5707 5703 5700 5697 5694 5691 5688 5685 5682 5679 5676 5675 5673 5672
5760 5753 5746 5725 5723 5726 5715 5729 5775 5771 5770 5769 5769 5772 5774 5773 5771 5769 5766 5763 5760 5758 5755 5751 5749 5745 5742 5739 5735 5731 5727 5723 5719 5715 5712 5709 5705 5702 5698 5696 5692 5688 5685 5682 5679 5676 5675 5672 5670